Location: Orange
(33.2833°S, 149.1000°E)
Time: 04:18:48
(UTC+11:00)

Envisat - Pass Details

Date: 30 September 2022
Orbit: 763 x 765 km, 98.2° (Epoch: 30 November)

Event Time Altitude Azimuth Distance (km) Brightness Sun altitude
Exits shadow 02:54:50 13° 53° (NE) 2,116 5.5 -34.3°
Maximum altitude 02:58:42 31° 110° (ESE) 1,339 4.7 -33.6°
Drops below altitude 10° 03:03:09 10° 170° (S) 2,326 5.9 -32.8°
Sets 03:05:41 0° 180° (S) 3,260 6.6 -32.3°
